Ketchikan, AK

2:54 AM AKST on January 21, 2019 (GMT -0900)
Ketchikan International

Weather History for PAKT - December, 2018

Change the Weather History Date:

Sunday, December 9, 2018

  Actual Average Record
Temperature  
Mean Temperature 44 °F -  
Max Temperature 50 °F 40 °F 57 °F (1960)
Min Temperature 39 °F 31 °F 6 °F (1977)
Degree Days  
Heating Degree Days 20    
Moisture  
Dew Point 39 °F    
Average Humidity 81    
Maximum Humidity 93    
Minimum Humidity 52    
Precipitation  
Precipitation 0.00 in - - ()
Sea Level Pressure  
Sea Level Pressure 29.58 in    
Wind  
Wind Speed 15 mph (SSE)    
Max Wind Speed 21 mph    
Max Gust Speed 32 mph    
Visibility 8 miles    
Events Rain    
Averages and records for this station are not official NWS values.
T = Trace of Precipitation, MM = Missing Value Source: NWS Daily Summary

Daily Weather History Graph

Daily Weather History Graph

Search for Another Location

Airport or City:

Astronomy

Dec. 09, 2018 Rise Set
Actual Time 8:01 AM AKST 3:16 PM AKST
Civil Twilight 7:16 AM AKST 4:02 PM AKST
Nautical Twilight 6:28 AM AKST 4:49 PM AKST
Astronomical Twilight 5:43 AM AKST 5:34 PM AKST
Moon 10:00 AM AKST (12/9) 5:37 PM AKST (12/9)
Length of Visible Light 8h 46m
Length of Day
7h 15m
Waxing Crescent, 6% of the Moon is Illuminated
Dec 9
Waxing Crescent
Dec 15
First Quarter
Dec 22
Full
Dec 29
Last Quarter
Jan 5
New

Hourly Weather History & Observations

Time (AKST) Temp. Windchill Dew Point Humidity Pressure Visibility Wind Dir Wind Speed Gust Speed Precip Events Conditions
12:53 AM 48.9 °F - 36.0 °F 61% 29.68 in 10.0 mi SE 19.6 mph 27.6 mph 0.00 in   Overcast
1:53 AM 48.9 °F - 36.0 °F 61% 29.63 in 10.0 mi SSE 13.8 mph 25.3 mph 0.00 in   Overcast
2:53 AM 48.0 °F - 35.1 °F 61% 29.56 in 10.0 mi SE 11.5 mph - 0.00 in   Overcast
3:53 AM 50.0 °F - 33.1 °F 52% 29.54 in 10.0 mi SSE 17.3 mph 26.5 mph N/A   Overcast
4:53 AM 45.0 °F 37.4 °F 37.0 °F 74% 29.50 in 10.0 mi SSE 18.4 mph 27.6 mph 0.00 in Rain Light Rain
5:53 AM 44.1 °F 35.9 °F 37.0 °F 76% 29.47 in 8.0 mi SE 19.6 mph 28.8 mph 0.00 in Rain Light Rain
6:53 AM 44.6 °F 36.9 °F 37.4 °F 76% 29.45 in 6.0 mi SE 18.4 mph 29.9 mph N/A Rain Light Rain
7:53 AM 44.6 °F 36.4 °F 39.2 °F 81% 29.44 in 8.0 mi SSE 20.7 mph 27.6 mph N/A Rain Light Rain
8:53 AM 44.6 °F 36.4 °F 39.2 °F 81% 29.46 in 8.0 mi SE 20.7 mph 32.2 mph N/A Rain Rain
9:53 AM 44.6 °F 37.8 °F 39.2 °F 81% 29.49 in 10.0 mi SSE 15.0 mph 29.9 mph N/A Rain Light Rain
10:53 AM 44.6 °F 37.2 °F 41.0 °F 87% 29.49 in 10.0 mi SE 17.3 mph 26.5 mph N/A Rain Light Rain
11:51 AM 48.2 °F - 44.6 °F 87% 29.48 in 10.0 mi SE 18.4 mph 27.6 mph N/A   Overcast
11:53 AM 48.2 °F - 44.6 °F 87% 29.49 in 10.0 mi SE 18.4 mph 27.6 mph N/A   Overcast
12:51 PM 46.4 °F 40.1 °F 42.8 °F 87% 29.49 in 10.0 mi SSE 15.0 mph 24.2 mph N/A   Overcast
12:53 PM 46.4 °F 40.1 °F 42.8 °F 87% 29.50 in 10.0 mi SSE 15.0 mph 24.2 mph N/A   Overcast
1:48 PM 44.6 °F 37.2 °F 41.0 °F 87% 29.50 in 3.0 mi SE 17.3 mph 25.3 mph N/A Rain Rain
1:53 PM 44.6 °F 37.4 °F 41.0 °F 87% 29.50 in 3.0 mi SSE 16.1 mph 21.9 mph N/A Rain Rain
2:53 PM 44.6 °F 37.8 °F 41.0 °F 87% 29.53 in 3.0 mi SE 15.0 mph 20.7 mph N/A Rain Rain
3:53 PM 42.8 °F 37.0 °F 41.0 °F 93% 29.56 in 3.0 mi SSE 10.4 mph - N/A Rain Light Rain
4:51 PM 44.6 °F 38.8 °F 42.8 °F 93% 29.56 in 2.5 mi SSE 11.5 mph - N/A Rain Light Rain
4:53 PM 44.1 °F 38.1 °F 42.1 °F 93% 29.57 in 3.0 mi SE 11.5 mph - N/A Rain Light Rain
5:53 PM 46.0 °F 44.8 °F 42.1 °F 86% 29.58 in 4.0 mi Variable 3.5 mph - N/A Rain Rain
6:53 PM 44.1 °F - 41.0 °F 89% 29.62 in 10.0 mi Calm Calm - N/A   Mostly Cloudy
7:53 PM 45.0 °F 41.2 °F 39.9 °F 82% 29.68 in 10.0 mi NW 6.9 mph 17.3 mph N/A   Overcast
8:53 PM 45.0 °F 40.1 °F 39.0 °F 80% 29.74 in 10.0 mi SW 9.2 mph - N/A   Overcast
9:32 PM 44.1 °F - 37.9 °F 79% 29.77 in 10.0 mi Calm Calm - N/A   Mostly Cloudy
9:53 PM 42.1 °F - 37.9 °F 85% 29.78 in 10.0 mi Calm Calm - N/A   Overcast
10:53 PM 39.9 °F 35.1 °F 37.0 °F 89% 29.81 in 10.0 mi SSE 6.9 mph - N/A   Mostly Cloudy
11:53 PM 39.0 °F 34.8 °F 36.0 °F 89% 29.84 in 10.0 mi South 5.8 mph - N/A   Partly Cloudy